EW1577 Weather Reports


Display with metric or nautical units.
time (UTC)temp
F
wind
direction
speed
MPH
gust
MPH
rain 1hr
in
rain 24hr
in
rain mn
in
humidity
%
barometer
mb
20260508125501 50 278 2.0 4.0 0.00 0.00 0.00 67 1013.7
20260508122501 49 324 1.0 4.0 0.00 0.00 0.00 71 1013.4
20260508121503 48 259 2.0 3.0 0.00 0.00 0.00 71 1013.4
20260508120502 48 243 2.0 6.0 0.00 0.00 0.00 72 1013.5
20260508115456 47 315 1.0 3.0 0.00 0.00 0.00 74 1013.5
20260508114456 46 309 0.0 2.0 0.00 0.00 0.00 76 1013.3
20260508113457 44 335 0.0 3.0 0.00 0.00 0.00 80 1013.3
20260508112456 42 343 0.0 1.0 0.00 0.00 0.00 87 1013.3
20260508111454 42 350 0.0 1.0 0.00 0.00 0.00 90 1013.1
20260508110450 41 344 0.0 1.0 0.00 0.00 0.00 91 1013.1
20260508105448 40 351 0.0 1.0 0.00 0.00 0.00 92 1013.1
20260508104441 40 351 0.0 1.0 0.00 0.00 0.00 92 1013.0
20260508103430 40 349 0.0 0.0 0.00 0.00 0.00 92 1012.9
20260508102429 40 344 0.0 1.0 0.00 0.00 0.00 92 1012.6
20260508095429 40 2 0.0 1.0 0.00 0.00 0.00 93 1012.8
20260508094429 40 355 0.0 1.0 0.00 0.00 0.00 93 1012.8
20260508092429 40 351 0.0 0.0 0.00 0.00 0.00 94 1012.7
20260508091429 40 357 0.0 1.0 0.00 0.00 0.00 94 1012.7
20260508090429 40 355 0.0 0.0 0.00 0.00 0.00 94 1012.8
20260508085429 41 348 0.0 0.0 0.00 0.00 0.00 94 1012.8
20260508083434 41 350 0.0 1.0 0.00 0.00 0.00 93 1012.7
20260508082420 41 344 0.0 0.0 0.00 0.00 0.00 93 1012.6
20260508081420 42 345 0.0 0.0 0.00 0.00 0.00 92 1012.7
20260508080413 42 354 0.0 0.0 0.00 0.00 0.00 92 1012.8
20260508075406 43 355 0.0 0.0 0.00 0.00 0.00 91 1012.7
20260508074401 44 350 0.0 0.0 0.00 0.00 0.00 91 1012.9
20260508073402 44 350 0.0 0.0 0.00 0.00 0.00 90 1012.8
20260508072402 44 344 0.0 0.0 0.00 0.00 0.00 89 1013.0
20260508071401 45 348 0.0 0.0 0.00 0.00 0.00 89 1013.3
20260508070401 45 348 0.0 0.0 0.00 0.00 0.00 89 1013.3
20260508065400 45 353 0.0 0.0 0.00 0.00 0.00 88 1013.3
20260508064400 45 351 0.0 1.0 0.00 0.00 0.00 88 1013.4
20260508063400 45 347 0.0 0.0 0.00 0.00 0.00 87 1013.6
20260508062401 46 344 0.0 1.0 0.00 0.00 0.00 85 1013.5
20260508061401 46 322 1.0 1.0 0.00 0.00 0.00 84 1013.5
20260508060358 45 351 0.0 0.0 0.00 0.00 0.00 84 1013.3
20260508055353 45 345 0.0 0.0 0.00 0.00 0.00 85 1013.1
20260508054339 45 348 0.0 0.0 0.00 0.00 0.00 86 1013.1
20260508053329 44 347 0.0 0.0 0.00 0.00 0.00 86 1013.0
20260508051329 44 349 0.0 0.0 0.00 0.00 0.00 88 1013.1
20260508045329 44 351 0.0 0.0 0.00 0.00 0.00 87 1013.3
20260508044329 44 352 0.0 0.0 0.00 0.00 0.00 87 1013.4
20260508043328 43 347 0.0 0.0 0.00 0.00 0.00 88 1013.4
20260508042330 43 352 0.0 0.0 0.00 0.00 0.00 89 1013.5
20260508041328 43 341 0.0 0.0 0.00 0.00 0.00 88 1013.5
20260508040318 43 350 0.0 0.0 0.00 0.00 0.00 87 1013.3
20260508035318 43 352 0.0 0.0 0.00 0.00 0.00 87 1013.1
20260508034316 43 349 0.0 0.0 0.00 0.00 0.00 86 1013.2
20260508033318 43 352 0.0 0.0 0.00 0.00 0.00 87 1013.2
20260508032307 42 349 0.0 0.0 0.00 0.00 0.00 86 1013.4
20260508031301 42 355 0.0 0.0 0.00 0.00 0.00 87 1013.3
20260508030300 42 352 0.0 0.0 0.00 0.00 0.00 87 1013.2
20260508024301 42 354 0.0 0.0 0.00 0.00 0.00 85 1013.5
20260508022301 43 343 0.0 0.0 0.00 0.00 0.00 84 1013.3
20260508021301 43 351 0.0 0.0 0.00 0.00 0.00 83 1013.4
20260508015301 44 345 0.0 0.0 0.00 0.00 0.00 80 1013.2
20260508014301 45 351 0.0 0.0 0.00 0.00 0.00 78 1013.2
20260508013301 45 348 0.0 0.0 0.00 0.00 0.00 76 1013.3
20260508012251 46 351 0.0 0.0 0.00 0.00 0.00 74 1013.1
20260508011240 47 346 0.0 0.0 0.00 0.00 0.00 70 1013.0
20260508010237 47 345 0.0 0.0 0.00 0.00 0.00 66 1013.0
20260508005230 49 351 0.0 0.0 0.00 0.00 0.00 63 1012.7
20260508004229 50 349 0.0 0.0 0.00 0.00 0.00 59 1012.9
20260508003220 51 347 0.0 0.0 0.00 0.00 0.00 56 1012.8
20260508002216 53 349 0.0 0.0 0.00 0.00 0.00 51 1012.7
20260508001209 54 345 0.0 1.0 0.00 0.00 0.00 48 1012.3
20260508000155 55 347 0.0 1.0 0.00 0.00 0.00 42 1012.5
20260507235151 56 341 0.0 3.0 0.00 0.00 0.00 43 1012.5
20260507234151 56 356 0.0 3.0 0.00 0.00 0.00 42 1012.5
20260507233151 56 196 1.0 4.0 0.00 0.00 0.00 40 1012.4
20260507232143 57 323 2.0 7.0 0.00 0.00 0.00 40 1012.5
20260507231144 57 349 0.0 7.0 0.00 0.00 0.00 41 1012.3
20260507230139 58 339 0.0 2.0 0.00 0.00 0.00 40 1012.5
20260507225142 58 353 2.0 3.0 0.00 0.00 0.00 42 1012.6
20260507223140 59 353 1.0 4.0 0.00 0.00 0.00 40 1012.4
20260507222135 59 284 1.0 4.0 0.00 0.00 0.00 36 1012.6
20260507221128 58 63 2.0 4.0 0.00 0.00 0.00 37 1012.6
20260507215129 57 334 1.0 10.0 0.00 0.00 0.00 38 1012.6
20260507214129 60 337 2.0 9.0 0.00 0.00 0.00 35 1012.4
20260507212124 59 339 1.0 4.0 0.00 0.00 0.00 43 1012.1
20260507211118 58 17 1.0 4.0 0.00 0.00 0.00 42 1012.3
20260507205116 59 308 1.0 10.0 0.00 0.00 0.00 40 1012.2
20260507204113 58 44 0.0 6.0 0.00 0.00 0.00 41 1012.2
20260507203113 60 328 2.0 8.0 0.00 0.00 0.00 38 1011.9
20260507201115 61 351 1.0 11.0 0.00 0.00 0.00 40 1012.3
20260507195101 59 288 4.0 7.0 0.00 0.00 0.00 40 1012.2
20260507194104 59 345 2.0 8.0 0.00 0.00 0.00 42 1012.4
20260507193101 60 188 3.0 8.0 0.00 0.00 0.00 41 1012.4
20260507192102 61 228 1.0 6.0 0.00 0.00 0.00 41 1012.3
20260507191101 61 118 1.0 10.0 0.00 0.00 0.00 40 1012.2
20260507190100 63 25 1.0 6.0 0.00 0.00 0.00 42 1012.2
20260507185100 61 96 1.0 6.0 0.00 0.00 0.00 43 1012.5
20260507184054 59 22 4.0 9.0 0.00 0.00 0.00 41 1012.5
20260507183051 60 311 4.0 9.0 0.00 0.00 0.00 38 1012.6
20260507182051 60 27 1.0 4.0 0.00 0.00 0.00 45 1012.3
20260507181048 59 355 4.0 9.0 0.00 0.00 0.00 41 1012.5
20260507175046 58 236 2.0 13.0 0.00 0.00 0.00 43 1012.6
20260507174041 58 29 8.0 9.0 0.00 0.00 0.00 42 1012.7
20260507173043 58 9 2.0 8.0 0.00 0.00 0.00 44 1012.8
20260507172035 58 282 2.0 8.0 0.00 0.00 0.00 43 1013.2
20260507171037 58 38 2.0 7.0 0.00 0.00 0.00 41 1013.1
20260507170034 57 357 2.0 6.0 0.00 0.00 0.00 41 1013.2
20260507165031 57 330 4.0 10.0 0.00 0.00 0.00 40 1013.3
20260507164025 58 337 1.0 6.0 0.00 0.00 0.00 43 1013.4
20260507163030 58 25 2.0 6.0 0.00 0.00 0.00 43 1013.4
20260507162022 57 333 0.0 7.0 0.00 0.00 0.00 45 1013.3
20260507161023 56 112 1.0 11.0 0.00 0.00 0.00 41 1013.5
20260507160027 57 48 1.0 7.0 0.00 0.00 0.00 46 1013.3
20260507155017 56 42 1.0 7.0 0.00 0.00 0.00 45 1013.4
20260507154016 56 248 3.0 8.0 0.00 0.00 0.00 43 1013.3
20260507153007 55 171 1.0 8.0 0.00 0.00 0.00 44 1013.1
20260507152009 55 139 2.0 6.0 0.00 0.00 0.00 43 1013.1
20260507151004 54 152 2.0 4.0 0.00 0.00 0.00 45 1012.9
20260507150013 54 21 1.0 4.0 0.00 0.00 0.00 46 1013.1
20260507145004 53 7 0.0 8.0 0.00 0.00 0.00 47 1013.2
20260507144007 52 21 2.0 6.0 0.00 0.00 0.00 50 1013.2
20260507143001 53 253 3.0 6.0 0.00 0.00 0.00 49 1013.3
20260507140952 51 19 0.0 4.0 0.00 0.00 0.00 56 1013.1
20260507135947 51 324 1.0 3.0 0.00 0.00 0.00 58 1013.4
20260507134949 50 338 0.0 4.0 0.00 0.00 0.00 57 1013.4
20260507133945 50 347 0.0 4.0 0.00 0.00 0.00 58 1013.6
20260507132940 49 223 2.0 4.0 0.00 0.00 0.00 62 1013.7
20260507131938 48 10 1.0 4.0 0.00 0.00 0.00 65 1013.4
20260507125934 47 333 2.0 6.0 0.00 0.00 0.00 70 1013.7